Volver al catálogo

STARLINK-31916

ActivoComunicacionesVLEO
NORAD 59795·PAYLOAD·🇺🇸 United States

Lanzado May 18, 2024 desde Cape Canaveral Space Force Station

Loading…

Próximos Pases (próximas 24 horas)

TLE

ActualizadoSource: CelesTrak SupGP

Época: Sep 15, 2026, 03:29 UTC

1 59795C 24093P   26258.14562500 -.00051224  00000+0 -18558-2 0  2581
2 59795  43.0004 218.9569 0001316 271.9185 323.1129 15.27596197    16

Sigue STARLINK-31916 en tiempo real con AllMySat

Download on the App Store